Location: Maccacari
(45.1333°N, 11.1333°E)
Time: 13:36:41
(UTC+00:00)

A-11 Canister half - Visible Passes

Search period start: 25 January 2021 00:00
Search period end: 04 February 2021 00:00
Orbit: 1517 x 1683 km, 47.2° (Epoch: 24 January)

Date Brightness Start Highest point End Pass type
(mag) Time Alt. Az. Time Alt. Az. Time Alt. Az.
25 Jan 10.9 03:32:28 10° S 03:32:28 10° S 03:32:28 10° S visible
25 Jan 10.5 16:37:46 10° SSE 16:42:15 14° SE 16:46:40 10° E visible
25 Jan 9.1 18:36:25 10° SSW 18:45:24 49° SE 18:47:02 45° ESE visible
25 Jan 10.0 20:40:25 10° WSW 20:45:15 35° WSW 20:45:15 35° WSW visible
26 Jan 9.3 18:13:36 10° SSW 18:22:33 47° SE 18:25:42 36° E visible
26 Jan 9.5 20:17:29 10° WSW 20:23:56 50° WSW 20:23:56 50° WSW visible
27 Jan 9.4 17:50:50 10° SSW 17:59:42 44° SE 18:04:21 27° E visible
27 Jan 9.0 19:54:33 10° WSW 20:02:34 68° WSW 20:02:34 68° WSW visible
27 Jan 11.0 21:59:55 10° W 22:00:47 13° W 22:00:47 13° W visible
28 Jan 9.5 17:28:04 10° SSW 17:36:51 42° SE 17:42:57 20° E visible
28 Jan 8.8 19:31:37 10° WSW 19:41:09 87° SSE 19:41:10 87° SSE visible
28 Jan 10.7 21:36:58 10° W 21:39:23 20° W 21:39:23 20° W visible
29 Jan 9.6 17:05:19 10° SSW 17:14:00 40° SE 17:21:30 13° ENE visible
29 Jan 8.8 19:08:41 10° WSW 19:18:15 85° SSE 19:19:42 68° E visible
29 Jan 10.3 21:14:00 10° W 21:17:55 29° W 21:17:55 29° W visible
30 Jan 9.7 16:42:34 10° SSW 16:51:10 38° SE 16:59:31 10° ENE visible
30 Jan 8.9 18:45:46 10° WSW 18:55:20 82° SSE 18:58:13 51° ENE visible
30 Jan 9.9 20:51:04 10° W 20:56:26 39° WNW 20:56:26 39° WNW visible
31 Jan 8.9 18:22:50 10° WSW 18:32:26 80° SSE 18:36:43 38° ENE visible
31 Jan 9.4 20:28:06 10° W 20:34:55 53° WNW 20:34:55 53° WNW visible
01 Feb 9.0 17:59:55 10° WSW 18:09:31 78° SSE 18:15:10 28° ENE visible
01 Feb 9.1 20:05:08 10° W 20:13:23 68° WNW 20:13:23 68° WNW visible
01 Feb 11.0 22:10:26 10° WNW 22:11:34 15° WNW 22:11:34 15° WNW visible
02 Feb 9.0 17:37:00 10° WSW 17:46:38 76° SSE 17:53:36 20° ENE visible
02 Feb 8.8 19:42:10 10° W 19:51:43 79° N 19:51:48 79° N visible
02 Feb 10.7 21:47:30 10° WNW 21:50:00 21° WNW 21:50:00 21° WNW visible
03 Feb 9.1 17:14:05 10° SW 17:23:44 73° SSE 17:32:01 14° ENE visible
03 Feb 8.8 19:19:12 10° W 19:28:47 79° N 19:30:13 67° ENE visible
03 Feb 10.3 21:24:34 10° WNW 21:28:26 29° WNW 21:28:26 29° WNW visible
